Weather History for Shannon, Ireland

Change the Weather History Date:

Saturday, September 1, 2012

  Actual Average Record
Temperature  
Mean Temperature 60 °F -  
Max Temperature 66 °F 63 °F 69 °F (1998)
Min Temperature 55 °F 50 °F 46 °F (2002)
Degree Days  
Heating Degree Days 4    
Growing Degree Days 10 (Base 50)    
Moisture  
Dew Point 57 °F    
Average Humidity 88    
Maximum Humidity 100    
Minimum Humidity 61    
Precipitation  
Precipitation 0.03 in 0.11 in - ()
Sea Level Pressure  
Sea Level Pressure 30.23 in    
Wind  
Wind Speed 11 mph ()    
Max Wind Speed 26 mph    
Max Gust Speed -    
Visibility 5.5 miles    
Events Rain    
Averages and records for this station are not official NWS values.
T = Trace of Precipitation, MM = Missing Value Source: Averaged Metar Reports

Daily Weather History Graph

Daily Weather History Graph

Search for Another Location

Airport:

Trip Planner

Search our weather history database for the weather conditions in past years. The results will help you decide how hot, cold, wet, or windy it might be!

Date:

Astronomy

Sep. 01, 2012 Rise Set
Actual Time 6:46 AM IST 8:23 PM IST
Civil Twilight 6:10 AM IST 8:58 PM IST
Nautical Twilight 5:26 AM IST 9:43 PM IST
Astronomical Twilight 4:36 AM IST 10:32 PM IST
Moon 8:13 PM IST 7:56 AM IST
Length of Visible Light 14h 48m
Length of Day
13h 36m
Full, 99% of the Moon is Illuminated
Sep 1
Full
Sep 8
Last Quarter
Sep 16
New
Sep 22
First Quarter
Sep 30
Full

Hourly Weather History & Observations

Time (IST) Temp. Dew Point Humidity Pressure Visibility Wind Dir Wind Speed Gust Speed Precip Events Conditions
12:00 AM 59.0 °F 57.2 °F 94% 30.36 in 6.2 mi WSW 11.5 mph - N/A   Mostly Cloudy
12:30 AM 59.0 °F 57.2 °F 94% 30.36 in 6.2 mi SW 9.2 mph - N/A   Mostly Cloudy
1:00 AM 59 °F 56 °F 86% 30.37 in 12 mi SW 11.2 mph - -   Mostly Cloudy
1:00 AM 59.0 °F 55.4 °F 88% 30.36 in 6.2 mi SW 10.4 mph - N/A   Mostly Cloudy
1:30 AM 59.0 °F 55.4 °F 88% 30.36 in 6.2 mi SW 9.2 mph - N/A   Mostly Cloudy
2:00 AM 57.2 °F 55.4 °F 94% 30.33 in 6.2 mi SW 6.9 mph - N/A   Mostly Cloudy
2:30 AM 57.2 °F 55.4 °F 94% 30.33 in 6.2 mi SSW 6.9 mph - N/A   Mostly Cloudy
3:00 AM 57.2 °F 55.4 °F 94% 30.33 in 6.2 mi SSW 5.8 mph - N/A   Mostly Cloudy
3:30 AM 57.2 °F 55.4 °F 94% 30.33 in 6.2 mi South 5.8 mph - N/A   Mostly Cloudy
4:00 AM 57.2 °F 55.4 °F 94% 30.33 in 6.2 mi South 6.9 mph - N/A   Mostly Cloudy
4:30 AM 57.2 °F 55.4 °F 94% 30.33 in 6.2 mi South 8.1 mph - N/A   Mostly Cloudy
5:00 AM 55.4 °F 53.6 °F 94% 30.30 in 6.2 mi South 8.1 mph - N/A   Mostly Cloudy
5:30 AM 55.4 °F 55.4 °F 100% 30.30 in 6.2 mi South 8.1 mph - N/A   Mostly Cloudy
6:00 AM 57.2 °F 55.4 °F 94% 30.30 in 6.2 mi South 5.8 mph - N/A   Mostly Cloudy
7:00 AM 56 °F 54 °F 91% 30.30 in 19 mi SSE 6.7 mph - -   Mostly Cloudy
7:00 AM 55.4 °F 53.6 °F 94% 30.30 in 6.2 mi SSE 6.9 mph - N/A   Mostly Cloudy
7:30 AM 57.2 °F 55.4 °F 94% 30.30 in 6.2 mi SSE 5.8 mph - N/A   Scattered Clouds
8:00 AM 59.0 °F 53.6 °F 82% 30.27 in 6.2 mi South 5.8 mph - N/A   Scattered Clouds
8:30 AM 59.0 °F 53.6 °F 82% 30.27 in 6.2 mi South 9.2 mph - N/A   Partly Cloudy
9:00 AM 60.8 °F 55.4 °F 82% 30.27 in 6.2 mi South 9.2 mph - N/A   Mostly Cloudy
9:30 AM 60.8 °F 55.4 °F 82% 30.24 in 6.2 mi SSW 13.8 mph - N/A   Scattered Clouds
10:00 AM 62.6 °F 55.4 °F 77% 30.24 in 6.2 mi SW 17.3 mph - N/A   Scattered Clouds
10:30 AM 62.6 °F 55.4 °F 77% 30.24 in 6.2 mi SW 16.1 mph - N/A   Scattered Clouds
11:00 AM 64.4 °F 55.4 °F 73% 30.21 in 6.2 mi SW 20.7 mph - N/A   Scattered Clouds
11:30 AM 64.4 °F 55.4 °F 73% 30.21 in 6.2 mi SW 20.7 mph - N/A   Scattered Clouds
12:00 PM 62.6 °F 53.6 °F 72% 30.24 in 6.2 mi WSW 23.0 mph - N/A   Mostly Cloudy
12:30 PM 64.4 °F 55.4 °F 73% 30.21 in 6.2 mi SW 20.7 mph - N/A   Mostly Cloudy
1:00 PM 64 °F 54 °F 61% 30.24 in 25 mi SW 24.6 mph - -   Scattered Clouds
1:00 PM 64.4 °F 53.6 °F 68% 30.21 in 6.2 mi SW 24.2 mph - N/A   Mostly Cloudy
1:30 PM 64.4 °F 55.4 °F 73% 30.21 in 6.2 mi SW 20.7 mph - N/A   Mostly Cloudy
2:00 PM 64.4 °F 55.4 °F 73% 30.21 in 6.2 mi SW 26.5 mph - N/A   Mostly Cloudy
2:30 PM 64.4 °F 55.4 °F 73% 30.21 in 6.2 mi SW 23.0 mph - N/A   Mostly Cloudy
3:00 PM 64.4 °F 55.4 °F 73% 30.18 in 6.2 mi SW 24.2 mph - N/A   Mostly Cloudy
3:30 PM 64.4 °F 55.4 °F 73% 30.18 in 6.2 mi SW 19.6 mph - N/A   Mostly Cloudy
4:00 PM 64.4 °F 57.2 °F 77% 30.15 in 6.2 mi SW 17.3 mph - N/A   Mostly Cloudy
4:30 PM 64.4 °F 57.2 °F 77% 30.15 in 6.2 mi SW 19.6 mph - N/A   Mostly Cloudy
5:00 PM 62.6 °F 57.2 °F 82% 30.15 in 6.2 mi SW 18.4 mph - N/A Rain Light Rain
5:30 PM 60.8 °F 59.0 °F 94% 30.15 in 3.1 mi SW 15.0 mph - N/A   Light Drizzle
6:00 PM 60.8 °F 59.0 °F 94% 30.15 in 2.2 mi SSW 15.0 mph - N/A   Light Drizzle
6:30 PM 60.8 °F 60.8 °F 100% 30.15 in 2.5 mi SW 13.8 mph - N/A   Light Drizzle
7:00 PM 60 °F 60 °F 100% 30.16 in 2 mi SSW 13.4 mph - - Rain Light Drizzle
7:00 PM 60.8 °F 60.8 °F 100% 30.15 in 2.5 mi SSW 13.8 mph - N/A   Light Drizzle
7:30 PM 60.8 °F 60.8 °F 100% 30.12 in 2.8 mi SSW 11.5 mph - N/A   Light Drizzle
8:00 PM 60.8 °F 60.8 °F 100% 30.12 in 2.2 mi SSW 11.5 mph - N/A   Light Drizzle
8:30 PM 60.8 °F 60.8 °F 100% 30.12 in 2.8 mi SW 13.8 mph - N/A Rain Light Rain
9:00 PM 60.8 °F 60.8 °F 100% 30.15 in 2.5 mi SW 13.8 mph - N/A   Light Drizzle
9:30 PM 60.8 °F 60.8 °F 100% 30.15 in 2.2 mi SW 10.4 mph - N/A   Light Drizzle
10:00 PM 60.8 °F 60.8 °F 100% 30.15 in 2.2 mi SW 11.5 mph - N/A   Light Drizzle
10:30 PM 60.8 °F 60.8 °F 100% 30.15 in 2.2 mi SW 11.5 mph - N/A   Light Drizzle
11:00 PM 60.8 °F 60.8 °F 100% 30.15 in 2.2 mi SW 11.5 mph - N/A   Light Drizzle
11:30 PM 60.8 °F 60.8 °F 100% 30.15 in 2.2 mi SW 11.5 mph - N/A   Light Drizzle